#timestamp,LO_Frequency,Hit,StdDev 
1457874015.4,286046990.7,Y
1457874035.2,286046991.0,P
1457874055.1,286046988.9,N
1457874056.0,286046988.9,N
1457874075.8,286046985.3,N
1457874095.6,286046985.2,N
1457874115.5,286046984.6,N
1457874135.3,286046986.3,N
1457874155.1,286046985.4,N
1457874175.9,286046984.0,Y
1457874195.7,286046996.2,P
1457874215.5,286046996.4,N
1457874235.4,286046995.5,N
1457874255.2,286046996.3,N
1457874275.0,286046998.6,N
1457874275.9,286046998.6,N
1457874295.8,286047000.2,N
1457874315.6,286046998.8,N
1457874335.4,286046997.4,N
1457874355.3,286046996.6,N
1457874375.1,286046997.9,N
1457874376.0,286046997.9,N
1457874395.8,286046997.1,N
1457874415.7,286046997.0,N
1457874435.5,286046993.4,N
1457874455.3,286046993.1,N
1457874475.2,286046990.2,Y
1457874495.9,286046997.9,P
1457874515.7,286046994.6,P
1457874535.6,286046996.4,N
1457874555.4,286046993.8,Y
1457874575.2,286046996.5,P
1457874595.1,286046999.4,P
1457874596.0,286046999.4,N
1457874615.8,286046998.2,N
1457874635.6,286046998.4,N
1457874655.4,286046998.6,N
1457874675.3,286046999.4,N
1457874695.1,286046999.5,N
1457874715.8,286046999.7,N
1457874735.7,286046999.4,N
1457874755.5,286047002.5,N
1457874775.3,286046998.2,N
1457874795.2,286047000.8,N
1457874815.9,286047000.0,N
1457874835.7,286047004.0,N
1457874855.6,286047002.7,N
1457874875.4,286046998.9,N
1457874895.2,286046996.5,N
1457874915.1,286046995.4,N
1457874916.0,286046995.4,N
1457874935.8,286046996.3,N
1457874955.6,286046995.5,N
1457874975.4,286046997.2,N
1457874995.3,286046999.4,N
1457875015.1,286046994.9,N
1457875035.8,286046996.5,N
1457875055.7,286046999.4,N
1457875075.5,286047000.4,N
1457875095.3,286046997.0,N
1457875115.2,286046997.5,N
1457875135.9,286046998.7,N
1457875155.7,286047000.0,N
1457875175.6,286047000.6,N
1457875195.4,286046996.9,N
1457875215.2,286046996.6,N
1457875235.1,286046998.9,N
1457875236.0,286046998.9,N
1457875255.8,286046999.6,N
1457875275.6,286047001.2,N
1457875295.4,286046999.7,N
1457875315.3,286046999.9,N
1457875335.1,286046998.8,N
1457875355.8,286046997.1,N
1457875375.7,286046997.7,N
1457875395.5,286046996.4,N
1457875415.3,286046994.2,Y
1457875435.2,286046995.9,P
1457875455.0,286046994.2,P
1457875455.9,286046994.2,P
1457875475.7,286046999.5,N
1457875495.6,286047000.1,N
1457875515.4,286046996.5,N
1457875535.2,286046997.9,N
1457875555.1,286046995.1,N
1457875556.0,286046995.1,N
1457875575.8,286046993.0,Y
1457875595.6,286046994.0,P
1457875615.5,286046993.4,P
1457875635.3,286046995.2,P
1457875655.1,286046995.9,Y
1457875675.9,286047001.1,P
1457875695.7,286046999.1,N
1457875715.5,286047002.7,N
1457875735.4,286047004.1,N
1457875755.2,286047000.8,N
1457875775.0,286047000.1,N
1457875775.9,286047000.1,N
1457875795.8,286047001.7,N
1457875815.6,286047001.8,N
1457875835.4,286047004.4,N
1457875855.3,286047004.0,N
1457875875.1,286047002.0,N
1457875876.0,286047002.0,N
1457875895.8,286046998.3,N
1457875915.7,286047001.2,N
1457875935.5,286047000.4,N
1457875955.3,286047004.4,N
1457875975.1,286047002.9,N
1457875995.9,286047001.7,N
1457876015.7,286047002.5,N
1457876035.5,286047000.4,N
1457876055.4,286047004.3,N
1457876075.2,286047003.5,N
1457876095.0,286047000.2,N
1457876095.9,286047000.2,N
1457876115.8,286046998.9,N
1457876135.6,286046998.1,N
1457876155.4,286047002.1,N
1457876175.3,286047004.4,N
1457876195.1,286047000.1,N
1457876196.0,286047000.1,N
1457876215.8,286046999.1,N
1457876235.7,286046996.5,N
1457876255.5,286046995.8,N
1457876275.3,286046996.7,N
1457876295.1,286046998.4,N
1457876315.9,286046998.2,N
1457876335.7,286046999.9,N
1457876355.5,286047001.2,N
1457876375.4,286046999.3,N
1457876395.2,286046998.9,N
1457876415.0,286046993.7,N
1457876415.9,286046993.7,N
1457876435.8,286046992.2,N
1457876455.6,286046990.3,Y
1457876475.4,286046989.1,P
1457876495.3,286046993.1,N
1457876515.1,286046992.9,N
1457876535.8,286046994.4,N
1457876555.7,286046991.0,N
1457876575.5,286046989.6,Y
1457876595.3,286046997.3,P
1457876615.2,286046998.6,N
1457876635.9,286046999.5,N
1457876655.7,286047002.3,N
1457876675.6,286047007.5,N
1457876695.4,286047006.5,N
1457876715.2,286047006.0,N
1457876735.1,286047004.0,N
1457876736.0,286047004.0,N
1457876755.8,286047004.1,N
1457876775.6,286047002.9,N
1457876795.5,286046999.8,N
1457876815.3,286047000.2,N
1457876835.1,286047002.4,N
1457876855.8,286046997.8,N
1457876875.7,286046996.7,N
1457876895.5,286046997.5,N
1457876915.3,286046997.9,N
1457876935.2,286046997.6,N
1457876955.0,286046998.4,N
1457876955.9,286046998.4,N
1457876975.7,286046998.1,N
1457876995.6,286046999.2,N
1457877015.4,286047000.1,N
1457877035.2,286047002.1,N
1457877055.1,286047004.1,N
1457877056.0,286047004.1,N
1457877075.8,286047002.0,N
1457877095.6,286047002.8,N
1457877115.5,286047001.7,N
1457877135.3,286047002.6,N
1457877155.1,286047003.0,N
1457877175.9,286047005.8,N
1457877195.7,286047006.0,N
1457877215.5,286047005.9,N
1457877235.3,286047005.5,N
1457877255.2,286047003.4,N
1457877275.0,286047003.9,N
1457877275.9,286047003.9,N
1457877295.7,286047005.7,N
1457877315.6,286047006.9,N
1457877335.4,286047007.4,N
1457877355.2,286047005.1,N
1457877375.1,286047005.5,N
1457877376.0,286047005.5,N
1457877395.8,286047006.9,N
1457877415.6,286047009.9,Y
1457877435.5,286047008.8,P
1457877455.3,286047009.1,P
1457877475.1,286047006.3,N
1457877495.9,286047004.6,N
1457877515.7,286047008.2,Y
1457877535.5,286047002.6,P
1457877555.4,286047000.2,N
1457877575.2,286046999.7,N
1457877595.0,286047002.5,N
1457877595.9,286047002.5,N
